Location: Asheville, NC
(35.6000°N, 82.5500°W)
Time: 10:36:56

ZACube-1 - Pass Details

Date: 13 March 2018
Orbit: 584 x 669 km, 97.6° (Epoch: 18 March)

Event Time Altitude Azimuth Distance (km) Brightness Sun altitude
Rises 21:07:42 0° 182° (S) 2,901 ? -19.3°
Reaches altitude 10° 21:10:00 10° 189° (S) 1,984 ? -19.8°
Maximum altitude 21:14:07 43° 261° (W) 857 ? -20.6°
Drops below altitude 10° 21:18:09 10° 334° (NNW) 1,950 ? -21.4°
Sets 21:20:24 0° 341° (NNW) 2,845 ? -21.9°
